C/2021 T4 ( Lemmon )

Japanese version
Home page
Updated on November 26, 2022

---------------------------------------------------------------------

* Profile

Discovery Date October 7, 2021
Magnitude 20.2 mag
Discoverer Mount Lemmon

* Pictures

* Orbital Elements

Epoch 2022 Aug. 9.0 TT = JDT 2459800.5
T 2023 July 31.51568 TT                                 Rudenko
q   1.4819373            (2000.0)            P               Q
z  +0.0000147      Peri.  329.78017     +0.28185577     -0.90376405
 +/-0.0000150      Node   257.79970     -0.80104470     -0.40645646
e   0.9999783      Incl.  160.75710     -0.52809536     +0.13417783
From 247 observations 2021 Aug. 7-2022 Sept. 8, mean residual 0".5.

* Finding Charts

* Magnitudes Graph

        m1 = 7.5 + 5 log d + 10.0 log r

---------------------------------------------------------------------

The orbital elements are published on M.P.E.C. 2022-R139.
The charts are made with StellaNavigator Ver.10 (AstroArts).
The magnitudes graphs are made with Comet for Windows.

---------------------------------------------------------------------

Copyright(C) Seiichi Yoshida (comet@aerith.net). All rights reserved.